Regional Weather Roundup
Issued by NWS Charleston, SC

Current Version | Previous Version | Graphics & Text | Print | Product List | Glossary On
Versions: 1 2 3 4 5 6 7 8 9 10 11 12 13 14 15 16 17 18 19 20 21 22 23 24 25 26 27 28 29 30 31 32 33 34 35 36 37 38 39 40 41 42 43 44 45 46 47 48 49 50
000 ASUS42 KCHS 220912 RWRCHS REGIONAL WEATHER ROUNDUP NATIONAL WEATHER SERVICE CHARLESTON SC 500 AM EDT WED MAR 22 2017 NOTE: "FAIR" INDICATES FEW OR NO CLOUDS BELOW 12,000 FEET WITH NO SIGNIFICANT WEATHER AND/OR OBSTRUCTIONS TO VISIBILITY. NOT ALL STATIONS ARE QUALITY CONTROLLED. USE DATA WITH CAUTION... ESPECIALLY DEWPOINT OBSERVATIONS. SCZ027-030-031-034>040-042>050-221000- ...SOUTHEAST SOUTH CAROLINA... CITY SKY/WX TMP DP RH WIND PRES REMARKS N CHARLESTON CLOUDY 62 58 86 W9 29.94R WATERFRONT PRK N/A 62 60 93 SW5 29.92R JOHNS ISLAND FAIR 63 59 88 SW7 29.94R PINOPOLIS N/A 61 61 100 W7 29.82 MONCKS CORNER PTSUNNY 59 57 94 SW3 29.94R SUMMERVILLE FAIR 61 59 94 S3 29.95R BEAUFORT MCAS PTCLDY 62 59 90 SW6 29.96S BEAUFORT ARPT FAIR 63 57 82 SW5 29.95S HILTON HEAD IS MOCLDY N/A N/A N/A SW7G13 29.96F WALTERBORO SUNNY 59 55 88 W3 29.95R ALLENDALE FAIR 61 59 94 CALM 29.94S ...SOUTHERN MIDLANDS AND PEE DEE... CITY SKY/WX TMP DP RH WIND PRES REMARKS GEORGETOWN FAIR 59 59 100 W8 29.92R KINGSTREE FAIR 59 57 94 W5 29.91R ORANGEBURG PTCLDY 60 58 92 W8 29.94R BARNWELL FAIR 61 59 94 W5 29.95R AIKEN FAIR 54 54 100 SW8 29.97S MANNING FAIR 59 55 88 SW5 29.92R COLUMBIA CLOUDY 60 56 86 W7 29.91S SUMTER PTCLDY 59 58 95 W6 29.89R FLORENCE CLOUDY 61 60 97 CALM 29.88F MYRTLE BEACH MOCLDY 60 59 96 SW6 29.89R N MYRTLE BEACH CLOUDY 60 60 100 SW3 29.86R $$ GAZ063-065-086>088-099>101-113>116-118-119-134>141-150-221000- ...SOUTHEAST GEORGIA... CITY SKY/WX TMP DP RH WIND PRES REMARKS SAVANNAH ARPT CLOUDY 64 54 69 SW7 29.96F HUNTER AAF MOCLDY 63 57 81 S7 29.93F FORT STEWART CLOUDY 63 55 76 CALM 29.94F STATESBORO NOT AVBL SYLVANIA CLOUDY N/A N/A N/A CALM 29.97F CLAXTON FAIR N/A N/A N/A CALM 29.96F ...CSRA...CENTRAL AND FAR SOUTHEAST GEORGIA... CITY SKY/WX TMP DP RH WIND PRES REMARKS THOMSON CLEAR 59 59 100 CALM 30.00R AUGUSTA-BUSH CLEAR 60 58 92 SW8 29.93F AUGUSTA-DANIEL CLEAR 61 56 83 NW3 29.95S SWAINSBORO FAIR 57 57 100 CALM 29.97F VIDALIA PTCLDY 63 55 77 W5 29.97S EASTMAN FAIR 60 57 90 CALM 30.00S HAZLEHURST FAIR 66 64 93 SW6 29.97S ALMA PTCLDY 61 61 100 S5 29.99F WAYCROSS CLOUDY 62 62 100 SW5 30.01S JESUP FAIR 64 61 88 W5 29.98F BAXLEY FAIR 63 63 100 SW3 29.98F BRUNSWICK MOCLDY 64 63 94 SW7 30.00S SAINT SIMONS PTCLDY 64 60 87 SW9 29.99F $$ SCZ027-028-034-036>038-045-046-048>050-GAZ119-141-221000- ...LAKE AND SUPPLEMENTAL COASTAL OBSERVATIONS... STATION/POSITION TIME TEMP WIND PRES WAVE SWELL AIR SEA DIR/SP/G HT/PER HT/PER/DIR (UTC) (F) (DEG/KT/KT) (MB) (FT/S) (FT/S/D) WINYAH BAY NOT AVBL LAKE MURRAY 0820 60 290/ 4/ 10 1012.5S ACE BASIN NERRS 0745 61 180/ 1 1014.0 FORT PULASKI 0848 63 60 210/ 5/ 8 1014.6F SAPELO ISLAND 0800 65 210/ 9 1015.0 $$ ANZ835-935-AMZ111-154-330-350-352-354-370-450-454-472-221000- ...C-MAN AND BUOY OBSERVATIONS... STATION/POSITION TIME TEMP WIND PRES WAVE SWELL AIR SEA DIR/SP/G HT/PER HT/PER/DIR (UTC) (F) (DEG/KT/KT) (MB) (FT/S) (FT/S/D) BUOY 41004 0750 65 66 140/ 10/ 14 1012.0 5/ 6 5/200/ 6 BUOY 41008 0750 64 61 200/ 12/ 14 1015.1 3/ 5 2/110/11 FOLLY BEACH CMAN 0800 61 200/ 11/ 12 1013.9R CAPERS NEARSHORE 0808 60 210/ 14/ 17 1012.3R FRIPP NEARSHORE 0808 62 59 220/ 10/ 12 1014.0F STATION/POSITION TIME TEMP WIND PRES WAVE SWELL AIR SEA DIR/SP/G HT/PER HT/PER/DIR (UTC) (F) (DEG/KT/KT) (MB) (FT/S) (FT/S/D) 5E ST. MARYS GA 0830 62 N/A 3/12 2/100/12 FRYING PAN BUOY 0850 65 66 30/ 2/ 4 1009.8F 5/ 6 5/220/ 6 BUOY 41025 0850 62 73 20/ 23/ 29 1010.0F 5/11 5/ 60/11 CAPE LOOKOUT NC 0800 60 330/ 17/ 19 1010.3F BUOY 41002 0850 72 75 220/ 23/ 27 1014.3F 9/ 7 2/ 20/11 BUOY 41010 NOT AVBL ST AUGUSTINE FL 0900 62 64 240/ 11/ 15 1017.0F $$

USA.gov is the U.S. government's official web portal to all federal, state and local government web resources and services.